BSAT-4A (42951 NORAD) Tracking and Keplerian Element Data

This shows tracking and keplerian element data for the satellite.

Feedback or suggestion? Click here.




ElementValue
Catalog42951
NameBSAT-4A
Epoch Orbit282
Epoch Day198.87377941
Epoch Year2018
RAAN11.9984
Inclination0.0442
Eccentricity0.0004187
Argument of Perigee62.6619
Mean Anonmoly285.3677
Mean Motion1.00271404
Decay Rate-3.7E-06
L11 42951U 17059B 18198.87377941 -.00000370 00000-0 00000-0 0 9997
L22 42951 0.0442 11.9984 0004187 62.6619 285.3677 1.00271404 2824

Live tracking and technical data element details for BSAT-4A (NORAD 42951). BSAT-4A can be tracked NOW for your location showing map with azimuth and elevation plus other details from your city location.

Track the satellite on the map from your city or location and see movement details for azimuth, elevation, latitude, longitude, range, height, and movement on the map or in text.







IsCatalogInMostPopularTable: catalog: 42951, numindb: 85
Update: records affected: 1



GetName: 42951 BSAT-4A

Hit Count: updated at: Thu, 19 Jul 2018 03:53:04 GMT